Year,Month,Day,Hour,Minute,Value (Times are PST for temperature in C)
2010,12,13,14,51,7.70
2010,12,13,14,52,7.70
2010,12,13,14,53,7.70
2010,12,13,14,54,7.70
2010,12,13,14,55,7.70
2010,12,13,14,59,7.70
2010,12,13,15,00,7.70
2010,12,13,15,01,7.70
2010,12,13,15,02,7.70
2010,12,13,15,03,7.70
2010,12,13,15,04,7.70
2010,12,13,15,05,7.70
2010,12,13,15,06,7.70
2010,12,13,15,07,7.70
2010,12,13,15,08,7.70
2010,12,13,15,09,7.70
2010,12,13,15,10,7.70
2010,12,13,15,11,7.70
2010,12,13,15,12,7.70
2010,12,13,15,13,7.70
2010,12,13,15,14,7.70
2010,12,13,15,15,7.70
2010,12,13,15,16,7.70
2010,12,13,15,17,7.70
2010,12,13,15,18,7.70
2010,12,13,15,19,7.70
2010,12,13,15,20,7.70
2010,12,13,15,21,7.70
2010,12,13,15,22,7.70
2010,12,13,15,23,7.70
2010,12,13,15,24,7.70
2010,12,13,15,25,7.70
2010,12,13,15,26,7.60
2010,12,13,15,27,7.60
2010,12,13,15,28,7.60
2010,12,13,15,29,7.60
2010,12,13,15,30,7.60
2010,12,13,15,31,7.60
2010,12,13,15,32,7.60
2010,12,13,15,33,7.60
2010,12,13,15,34,7.60
2010,12,13,15,35,7.60
2010,12,13,15,36,7.60
2010,12,13,15,37,7.60
2010,12,13,15,38,7.60
2010,12,13,15,39,7.60
2010,12,13,15,40,7.50
2010,12,13,15,41,7.50
2010,12,13,15,42,7.50
2010,12,13,15,43,7.50
2010,12,13,15,44,7.50
2010,12,13,15,45,7.50
2010,12,13,15,46,7.50
2010,12,13,15,47,7.50
2010,12,13,15,48,7.40
2010,12,13,15,49,7.50
2010,12,13,15,50,7.40
2010,12,13,15,51,7.40
2010,12,13,15,52,7.40
2010,12,13,15,53,7.40
2010,12,13,15,54,7.40
2010,12,13,15,55,7.40
2010,12,13,15,56,7.40
2010,12,13,15,57,7.40
2010,12,13,15,58,7.40
2010,12,13,15,59,7.40
2010,12,13,16,00,7.40
2010,12,13,16,01,7.40
2010,12,13,16,02,7.40
2010,12,13,16,03,7.40
2010,12,13,16,04,7.40
2010,12,13,16,05,7.40
2010,12,13,16,06,7.30
2010,12,13,16,07,7.30
2010,12,13,16,08,7.30
2010,12,13,16,09,7.30
2010,12,13,16,10,7.30
2010,12,13,16,11,7.30
2010,12,13,16,12,7.30
2010,12,13,16,13,7.30
2010,12,13,16,14,7.30
2010,12,13,16,15,7.30
2010,12,13,16,16,7.30
2010,12,13,16,17,7.30
2010,12,13,16,18,7.30
2010,12,13,16,19,7.20
2010,12,13,16,20,7.20
2010,12,13,16,21,7.20
2010,12,13,16,22,7.20
2010,12,13,16,23,7.20
2010,12,13,16,24,7.20
2010,12,13,16,25,7.20
2010,12,13,16,26,7.20
2010,12,13,16,27,7.20
2010,12,13,16,28,7.20
2010,12,13,16,29,7.20
2010,12,13,16,30,7.20
2010,12,13,16,31,7.20
2010,12,13,16,32,7.20
2010,12,13,16,33,7.20
2010,12,13,16,34,7.20
2010,12,13,16,35,7.20
2010,12,13,16,36,7.20
2010,12,13,16,37,7.20
2010,12,13,16,38,7.20
2010,12,13,16,39,7.20
2010,12,13,16,40,7.20
2010,12,13,16,41,7.20
2010,12,13,16,42,7.20
2010,12,13,16,43,7.20
2010,12,13,16,44,7.20
2010,12,13,16,45,7.20
2010,12,13,16,46,7.20
2010,12,13,16,47,7.10
2010,12,13,16,48,7.10
2010,12,13,16,49,7.10
2010,12,13,16,50,7.10
2010,12,13,16,51,7.10
2010,12,13,16,52,7.10
2010,12,13,16,53,7.10
2010,12,13,16,54,7.10
2010,12,13,16,55,7.10
2010,12,13,16,56,7.10
2010,12,13,16,57,7.10
2010,12,13,16,58,7.10
2010,12,13,16,59,7.10
2010,12,13,17,00,7.10
2010,12,13,17,01,7.10
2010,12,13,17,02,7.10
2010,12,13,17,03,7.10
2010,12,13,17,04,7.10
2010,12,13,17,05,7.10
2010,12,13,17,06,7.00
2010,12,13,17,07,7.00
2010,12,13,17,08,7.00
2010,12,13,17,09,7.00
2010,12,13,17,10,7.00
2010,12,13,17,11,7.00
2010,12,13,17,12,7.00
2010,12,13,17,13,7.00
2010,12,13,17,14,7.00
2010,12,13,17,15,6.90
2010,12,13,17,16,6.90
2010,12,13,17,17,6.90
2010,12,13,17,18,6.90
2010,12,13,17,19,6.90
2010,12,13,17,20,6.90
2010,12,13,17,21,6.90
2010,12,13,17,22,6.90
2010,12,13,17,23,6.90
2010,12,13,17,24,6.90
2010,12,13,17,25,6.90
2010,12,13,17,26,6.90
2010,12,13,17,27,6.90
2010,12,13,17,28,6.90
2010,12,13,17,29,6.90
2010,12,13,17,30,6.90
2010,12,13,17,31,6.90
2010,12,13,17,32,6.90
2010,12,13,17,33,6.80
2010,12,13,17,34,6.80
2010,12,13,17,35,6.80
2010,12,13,17,36,6.80
2010,12,13,17,37,6.80
2010,12,13,17,38,6.80
2010,12,13,17,39,6.80
2010,12,13,17,40,6.80
2010,12,13,17,41,6.80
2010,12,13,17,42,6.80
2010,12,13,17,43,6.80
2010,12,13,17,44,6.80
2010,12,13,17,45,6.80
2010,12,13,17,46,6.80
2010,12,13,17,47,6.80
2010,12,13,17,48,6.80
2010,12,13,17,49,6.80
2010,12,13,17,50,6.70
2010,12,13,17,51,6.70
2010,12,13,17,52,6.70
2010,12,13,17,53,6.70
2010,12,13,17,54,6.70
2010,12,13,17,55,6.70
2010,12,13,17,56,6.70
2010,12,13,17,57,6.70
2010,12,13,17,58,6.70
2010,12,13,17,59,6.70
2010,12,13,18,00,6.70
2010,12,13,18,01,6.70
2010,12,13,18,02,6.70
2010,12,13,18,03,6.70
2010,12,13,18,04,6.70
2010,12,13,18,05,6.60
2010,12,13,18,06,6.60
2010,12,13,18,07,6.60
2010,12,13,18,08,6.60
2010,12,13,18,09,6.60
2010,12,13,18,10,6.60
2010,12,13,18,11,6.60
2010,12,13,18,12,6.60
2010,12,13,18,13,6.60
2010,12,13,18,14,6.60
2010,12,13,18,15,6.60
2010,12,13,18,16,6.50
2010,12,13,18,17,6.50
2010,12,13,18,18,6.50
2010,12,13,18,19,6.50
2010,12,13,18,20,6.40
2010,12,13,18,21,6.40
2010,12,13,18,22,6.40
2010,12,13,18,23,6.40
2010,12,13,18,24,6.40
2010,12,13,18,25,6.40
2010,12,13,18,26,6.40
2010,12,13,18,27,6.40
2010,12,13,18,28,6.40
2010,12,13,18,29,6.40
2010,12,13,18,30,6.40
2010,12,13,18,31,6.40
2010,12,13,18,32,6.40
2010,12,13,18,33,6.40
2010,12,13,18,34,6.40
2010,12,13,18,35,6.40
2010,12,13,18,36,6.30
2010,12,13,18,37,6.30
2010,12,13,18,38,6.30
2010,12,13,18,39,6.30
2010,12,13,18,40,6.30
2010,12,13,18,41,6.30
2010,12,13,18,42,6.30
2010,12,13,18,43,6.30
2010,12,13,18,44,6.30
2010,12,13,18,45,6.30
2010,12,13,18,46,6.30
2010,12,13,18,47,6.30
2010,12,13,18,48,6.30
2010,12,13,18,49,6.30
2010,12,13,18,50,6.30
2010,12,13,18,51,6.30
2010,12,13,18,52,6.30
2010,12,13,18,53,6.30
2010,12,13,18,54,6.30
2010,12,13,18,55,6.30
2010,12,13,18,56,6.30
2010,12,13,18,57,6.30
2010,12,13,18,58,6.30
2010,12,13,18,59,6.30
2010,12,13,19,00,6.30
2010,12,13,19,01,6.30
2010,12,13,19,02,6.30
2010,12,13,19,03,6.30
2010,12,13,19,04,6.30
2010,12,13,19,05,6.30
2010,12,13,19,06,6.30
2010,12,13,19,07,6.30
2010,12,13,19,08,6.30
2010,12,13,19,09,6.30
2010,12,13,19,10,6.30
2010,12,13,19,11,6.30
2010,12,13,19,12,6.20
2010,12,13,19,13,6.20
2010,12,13,19,14,6.20
2010,12,13,19,15,6.20
2010,12,13,19,16,6.20
2010,12,13,19,17,6.10
2010,12,13,19,18,6.10
2010,12,13,19,19,6.10
2010,12,13,19,20,6.00
2010,12,13,19,21,6.00
2010,12,13,19,22,5.90
2010,12,13,19,23,5.90
2010,12,13,19,24,5.90
2010,12,13,19,25,5.90
2010,12,13,19,26,5.90
2010,12,13,19,27,5.90
2010,12,13,19,28,5.90
2010,12,13,19,29,5.90
2010,12,13,19,30,5.90
2010,12,13,19,31,5.80
2010,12,13,19,32,5.80
2010,12,13,19,33,5.80
2010,12,13,19,34,5.80
2010,12,13,19,35,5.80
2010,12,13,19,36,5.80
2010,12,13,19,37,5.80
2010,12,13,19,38,5.80
2010,12,13,19,39,5.80
2010,12,13,19,40,5.80
2010,12,13,19,41,5.80
2010,12,13,19,42,5.80
2010,12,13,19,43,5.80
2010,12,13,19,44,5.80
2010,12,13,19,45,5.80
2010,12,13,19,46,5.80
2010,12,13,19,47,5.80
2010,12,13,19,48,5.80
2010,12,13,19,49,5.80
2010,12,13,19,50,5.90
2010,12,13,19,51,5.80
2010,12,13,19,52,5.80
2010,12,13,19,53,5.80
2010,12,13,19,54,5.80
2010,12,13,19,55,5.80
2010,12,13,19,56,5.80
2010,12,13,19,57,5.80
2010,12,13,19,58,5.80
2010,12,13,19,59,5.80
2010,12,13,20,00,5.80
2010,12,13,20,01,5.80
2010,12,13,20,02,5.80
2010,12,13,20,03,5.80
2010,12,13,20,04,5.80
2010,12,13,20,05,5.80
2010,12,13,20,06,5.70
2010,12,13,20,07,5.70
2010,12,13,20,08,5.70
2010,12,13,20,09,5.70
2010,12,13,20,10,5.70
2010,12,13,20,11,5.70
2010,12,13,20,12,5.70
2010,12,13,20,13,5.70
2010,12,13,20,14,5.70
2010,12,13,20,15,5.70
2010,12,13,20,16,5.70
2010,12,13,20,17,5.70
2010,12,13,20,18,5.70
2010,12,13,20,19,5.70
2010,12,13,20,20,5.60
2010,12,13,20,21,5.60
2010,12,13,20,22,5.70
2010,12,13,20,23,5.60
2010,12,13,20,24,5.70
2010,12,13,20,25,5.70
2010,12,13,20,26,5.70
2010,12,13,20,27,5.70
2010,12,13,20,28,5.70
2010,12,13,20,29,5.70
2010,12,13,20,30,5.70
2010,12,13,20,31,5.70
2010,12,13,20,32,5.70
2010,12,13,20,33,5.70
2010,12,13,20,34,5.70
2010,12,13,20,35,5.70
2010,12,13,20,36,5.70
2010,12,13,20,37,5.70
2010,12,13,20,38,5.70
2010,12,13,20,39,5.70
2010,12,13,20,40,5.70
2010,12,13,20,41,5.70
2010,12,13,20,42,5.80
2010,12,13,20,43,5.80
2010,12,13,20,44,5.80
2010,12,13,20,45,5.80
2010,12,13,20,46,5.80
2010,12,13,20,47,5.80
2010,12,13,20,48,5.80
2010,12,13,20,49,5.80
2010,12,13,20,50,5.80
2010,12,13,20,51,5.70
2010,12,13,20,52,5.70
2010,12,13,20,53,5.70
2010,12,13,20,54,5.70
2010,12,13,20,55,5.70
2010,12,13,20,56,5.80
2010,12,13,20,57,5.80
2010,12,13,20,58,5.80
2010,12,13,20,59,5.80
2010,12,13,21,00,5.80
2010,12,13,21,01,5.80
2010,12,13,21,02,5.80
2010,12,13,21,03,5.80
2010,12,13,21,04,5.80
2010,12,13,21,05,5.80
2010,12,13,21,06,5.80
2010,12,13,21,07,5.80
2010,12,13,21,08,5.80
2010,12,13,21,09,5.80
2010,12,13,21,10,5.80
2010,12,13,21,11,5.80
2010,12,13,21,12,5.80
2010,12,13,21,13,5.80
2010,12,13,21,14,5.80
2010,12,13,21,15,5.80
2010,12,13,21,16,5.80
2010,12,13,21,17,5.80
2010,12,13,21,18,5.80
2010,12,13,21,19,5.90
2010,12,13,21,20,5.90
2010,12,13,21,21,5.90
2010,12,13,21,22,5.90
2010,12,13,21,23,5.90
2010,12,13,21,24,5.90
2010,12,13,21,25,5.90
2010,12,13,21,26,5.90
2010,12,13,21,27,5.90
2010,12,13,21,28,6.00
2010,12,13,21,29,6.00
2010,12,13,21,30,6.00
2010,12,13,21,31,6.00
2010,12,13,21,32,6.00
2010,12,13,21,33,5.90
2010,12,13,21,34,5.90
2010,12,13,21,35,5.90
2010,12,13,21,36,5.90
2010,12,13,21,37,5.90
2010,12,13,21,38,5.90
2010,12,13,21,39,5.90
2010,12,13,21,40,5.90
2010,12,13,21,41,5.90
2010,12,13,21,42,5.90
2010,12,13,21,43,5.80
2010,12,13,21,44,5.80
2010,12,13,21,45,5.80
2010,12,13,21,46,5.90
2010,12,13,21,47,5.90
2010,12,13,21,48,5.90
2010,12,13,21,49,5.90
2010,12,13,21,50,5.90
2010,12,13,21,51,6.00
2010,12,13,21,52,6.00
2010,12,13,21,53,6.00
2010,12,13,21,54,6.00
2010,12,13,21,55,6.00
2010,12,13,21,56,6.00
2010,12,13,21,57,6.00
2010,12,13,21,58,6.10
2010,12,13,21,59,6.00
2010,12,13,22,00,6.10
2010,12,13,22,01,6.10
2010,12,13,22,02,6.10
2010,12,13,22,03,6.10
2010,12,13,22,04,6.10
2010,12,13,22,05,6.10
2010,12,13,22,06,6.10
2010,12,13,22,07,6.10
2010,12,13,22,08,6.10
2010,12,13,22,09,6.10
2010,12,13,22,10,6.10
2010,12,13,22,11,6.10
2010,12,13,22,12,6.20
2010,12,13,22,13,6.20
2010,12,13,22,14,6.20
2010,12,13,22,15,6.20
2010,12,13,22,16,6.20
2010,12,13,22,17,6.20
2010,12,13,22,18,6.20
2010,12,13,22,19,6.20
2010,12,13,22,20,6.20
2010,12,13,22,21,6.20
2010,12,13,22,22,6.20
2010,12,13,22,23,6.20
2010,12,13,22,24,6.20
2010,12,13,22,25,6.20
2010,12,13,22,26,6.30
2010,12,13,22,27,6.30
2010,12,13,22,28,6.30
2010,12,13,22,29,6.40
2010,12,13,22,30,6.40
2010,12,13,22,31,6.40
2010,12,13,22,32,6.40
2010,12,13,22,33,6.50
2010,12,13,22,34,6.50
2010,12,13,22,35,6.50
2010,12,13,22,36,6.50
2010,12,13,22,37,6.60
2010,12,13,22,38,6.60
2010,12,13,22,39,6.60
2010,12,13,22,40,6.60
2010,12,13,22,41,6.60
2010,12,13,22,42,6.60
2010,12,13,22,43,6.60
2010,12,13,22,44,6.60
2010,12,13,22,45,6.60
2010,12,13,22,46,6.60
2010,12,13,22,47,6.60
2010,12,13,22,48,6.50
2010,12,13,22,49,6.50
2010,12,13,22,50,6.50
2010,12,13,22,51,6.40
2010,12,13,22,52,6.40
2010,12,13,22,53,6.40
2010,12,13,22,54,6.30
2010,12,13,22,55,6.30
2010,12,13,22,56,6.30
2010,12,13,22,57,6.30
2010,12,13,22,58,6.30
2010,12,13,22,59,6.20
2010,12,13,23,00,6.20
2010,12,13,23,01,6.20
2010,12,13,23,02,6.20
2010,12,13,23,03,6.20
2010,12,13,23,04,6.20
2010,12,13,23,05,6.20
2010,12,13,23,06,6.20
2010,12,13,23,07,6.20
2010,12,13,23,08,6.20
2010,12,13,23,09,6.20
2010,12,13,23,10,6.20
2010,12,13,23,11,6.20
2010,12,13,23,12,6.20
2010,12,13,23,13,6.20
2010,12,13,23,14,6.20
2010,12,13,23,15,6.20
2010,12,13,23,16,6.20
2010,12,13,23,17,6.20
2010,12,13,23,18,6.30
2010,12,13,23,19,6.30
2010,12,13,23,20,6.30
2010,12,13,23,21,6.30
2010,12,13,23,22,6.30
2010,12,13,23,23,6.40
2010,12,13,23,24,6.40
2010,12,13,23,25,6.40
2010,12,13,23,26,6.40
2010,12,13,23,27,6.40
2010,12,13,23,28,6.40
2010,12,13,23,29,6.40
2010,12,13,23,30,6.50
2010,12,13,23,31,6.50
2010,12,13,23,32,6.50
2010,12,13,23,33,6.50
2010,12,13,23,34,6.50
2010,12,13,23,35,6.50
2010,12,13,23,36,6.50
2010,12,13,23,37,6.50
2010,12,13,23,38,6.50
2010,12,13,23,39,6.50
2010,12,13,23,40,6.50
2010,12,13,23,41,6.60
2010,12,13,23,42,6.60
2010,12,13,23,43,6.60
2010,12,13,23,44,6.60
2010,12,13,23,45,6.60
2010,12,13,23,46,6.60
2010,12,13,23,47,6.70
2010,12,13,23,48,6.70
2010,12,13,23,49,6.70
2010,12,13,23,50,6.70
2010,12,13,23,51,6.70
2010,12,13,23,52,6.70
2010,12,13,23,53,6.70
2010,12,13,23,54,6.70
2010,12,13,23,55,6.70
2010,12,13,23,56,6.70
2010,12,13,23,57,6.70
2010,12,13,23,58,6.70
2010,12,13,23,59,6.70
